星链-5623 (STARLINK-5623 )

导读 | 豆包AI

STARLINK-5623是美国太空探索技术公司星链互联网卫星项目的一员,于2023年1月31日发射升空,属于星链星座组网的第二代卫星。它旨在为全球提供低延迟、高速率的宽带互联网服务,尤其覆盖偏远与网络基础设施匮乏区域,依托近地轨道部署,助力星链完成全球卫星互联网组网建设。

Basic Information
目录编号:
55405
目录名称:
STARLINK-5623
国际标识:
2023-014Q
轨道中心:
EARTH
卫星名称:
星链-5623
卫星全名:
星链-5623 (STARLINK-5623 )
卫星状态:
在轨 (已飞行1139 天)
发射日期:
2023-01-31 UTC
国别 :
美国 (US)
星等 :
--
Orbit Information
数据来源 国际轨道数据 AOE轨道数据
星历时间 2026-03-15T13:24:21+0800
11小时前
查看轨道信息
2026-03-13T22:00:00+0800
2天前
查看轨道信息
半长轴 6950.175km 6950.158km
偏心率 0.0003185 0.0003277
轨道倾角 70.000° 70.002°
近地点辐角 266.936° 276.105°
升交点赤经 50.540° 54.677°
平近点角 93.144° 230.077°
近地点 569.824km 569.743km
远地点 574.252km 574.299km
周期 96.107分钟 96.106分钟
每日圈数 14.983358 14.983413
Detailed Information
固有亮度:
5
最大亮度:
2.5
卫星平台:
Starlink v1.5
覆盖范围:
全球
运营商:
太空探索技术公司
运营商所在国:
美国
制造商(研发单位):
太空探索技术公司
制造商所在国:
美国
使用方式:
暂无
Satellite Introduction
星链(Starlink)计划是由太空探索技术公司(SpaceX)提出的一个巨型低轨卫星互联网星座项目,计划在2019年至2024年间在太空搭建由约1.2万颗卫星组成的“星链”网络,其中1584颗将部署在地球上空550千米处的近地轨道,并从2020年开始工作。该卫星仍在工作。
2D Orbit Map
3D Orbit Map
Orbit Altitude Analysis Chart
Orbit Inclination Analysis Chart
Orbit Comprehensive Analysis Chart
View Comprehensive Chart